Regional Weather Roundup
Issued by NWS Charleston, SC

Current Version | Previous Version | Graphics & Text | Print | Product List | Glossary On
Versions: 1 2 3 4 5 6 7 8 9 10 11 12 13 14 15 16 17 18 19 20 21 22 23 24 25 26 27 28 29 30 31 32 33 34 35 36 37 38 39 40 41 42 43 44 45 46 47 48 49 50
000
ASUS42 KCHS 080912
RWRCHS

REGIONAL WEATHER ROUNDUP
NATIONAL WEATHER SERVICE CHARLESTON SC
400 AM EST THU DEC 08 2016

NOTE: "FAIR" INDICATES FEW OR NO CLOUDS BELOW 12,000 FEET WITH NO
SIGNIFICANT WEATHER AND/OR OBSTRUCTIONS TO VISIBILITY.

NOT ALL STATIONS ARE QUALITY CONTROLLED. USE DATA WITH CAUTION...
ESPECIALLY DEWPOINT OBSERVATIONS.

SCZ027-030-031-034>040-042>050-081000-
...SOUTHEAST SOUTH CAROLINA...

CITY           SKY/WX    TMP DP  RH WIND       PRES   REMARKS
N CHARLESTON   CLOUDY    55  52  89 CALM      30.06F
WATERFRONT PRK   N/A     56  54  93 VRB2      30.06F
MOUNT PLEASANT NOT AVBL
JOHNS ISLAND   CLOUDY    55  55 100 CALM      30.06F
PINOPOLIS        N/A     54  54 100 CALM      29.99F
MONCKS CORNER  CLOUDY    52  50  93 CALM      30.06F FOG
SUMMERVILLE    CLOUDY   N/A N/A N/A CALM      30.07F
BEAUFORT MCAS  CLOUDY    57  55  93 W6        30.07F
BEAUFORT ARPT  CLOUDY    55  55 100 W6        30.07F
HILTON HEAD IS CLOUDY    57  55  94 SW6       30.08F
WALTERBORO     CLOUDY    55 N/A N/A CALM      30.08S
ALLENDALE      CLOUDY    54  54 100 CALM      30.06S FOG

...SOUTHERN MIDLANDS AND PEE DEE...

CITY           SKY/WX    TMP DP  RH WIND       PRES   REMARKS
GEORGETOWN     CLOUDY    50  48  93 CALM      30.08F
KINGSTREE      CLOUDY    52  50  93 CALM      30.06S
ORANGEBURG     CLOUDY    53  52  96 CALM      30.06F
BARNWELL       NOT AVBL
AIKEN          CLOUDY    50  50 100 W6        30.09S FOG
MANNING        CLOUDY    50  50 100 CALM      30.06S
COLUMBIA       CLOUDY    51  49  92 CALM      30.05S FOG
SUMTER         CLOUDY    52  50  93 SW3       30.03F
FLORENCE       CLOUDY    53  50  89 W5        30.06S
MYRTLE BEACH   CLOUDY    52  48  87 SW5       30.08F
N MYRTLE BEACH CLOUDY    50  49  96 W3        30.05F

$$

GAZ063-065-086>088-099>101-113>116-118-119-134>141-150-081000-
...SOUTHEAST GEORGIA...

CITY           SKY/WX    TMP DP  RH WIND       PRES   REMARKS
SAVANNAH ARPT  CLOUDY    55  49  80 W6        30.09S
HUNTER AAF     CLOUDY    55  54  96 W8        30.06F
FORT STEWART   CLEAR     51  47  87 CALM      30.07F
STATESBORO     MOCLDY    50  50 100 CALM      30.08S
SYLVANIA       SUNNY    N/A N/A N/A CALM      30.09S
CLAXTON        CLOUDY   N/A N/A N/A CALM      30.10S

...CSRA...CENTRAL AND FAR SOUTHEAST GEORGIA...

CITY           SKY/WX    TMP DP  RH WIND       PRES   REMARKS
THOMSON        CLEAR     46  46 100 CALM      30.12F
AUGUSTA-BUSH   MOCLDY    53  50  89 W6        30.07S
AUGUSTA-DANIEL MOCLDY    51  47  86 VRB6      30.08R
SWAINSBORO     FAIR      50  46  87 NW6       30.10S
VIDALIA        MOCLDY    54  52  94 W3        30.10S
EASTMAN        CLOUDY    54  40  58 CALM      30.14R
HAZLEHURST     CLOUDY    55  50  81 CALM      30.10S
ALMA           NOT AVBL
WAYCROSS       PTCLDY    50  50 100 CALM      30.11F
JESUP          FAIR      46  46 100 CALM      30.11S FOG
BAXLEY         CLOUDY    54  52  94 NW6       30.10F
BRUNSWICK      CLEAR     52  52 100 W5        30.12R
SAINT SIMONS   CLEAR     53  51  93 VRB5      30.11R

$$

SCZ027-028-034-036>038-045-046-048>050-GAZ119-141-081000-
...LAKE AND SUPPLEMENTAL COASTAL OBSERVATIONS...

STATION/POSITION TIME  TEMP    WIND        PRES    WAVE   SWELL
                       AIR SEA DIR/SP/G            HT/PER HT/PER/DIR
                 (UTC) (F)     (DEG/KT/KT) (MB)    (FT/S) (FT/S/D)
WINYAH BAY       0745   50        CALM     1018.0
LAKE MURRAY      0820   53     270/  5/  7 1016.9
ACE BASIN NERRS  0745   54        CALM     1018.0
FORT PULASKI     0848   57 62  300/ 12/ 14 1018.7S
SAPELO ISLAND    0800   56     300/  6     1019.0

$$

ANZ835-935-AMZ111-154-330-350-352-354-370-450-454-472-081000-
...C-MAN AND BUOY OBSERVATIONS...

STATION/POSITION TIME  TEMP    WIND        PRES    WAVE   SWELL
                       AIR SEA DIR/SP/G            HT/PER HT/PER/DIR
                 (UTC) (F)     (DEG/KT/KT) (MB)    (FT/S) (FT/S/D)
BUOY 41004       0850   63 74  290/  2/  6 1017.7F   2/ 7   2/120/ 7
BUOY 41008       0850   59 65  300/ 14/ 14 1018.4R   2/ 3   2/ 60/11
FOLLY BEACH CMAN 0800   56      20/  3/  3 1018.9
CAPERS NEARSHORE 0808   56 61   10/  4/  6 1018.2R
FRIPP NEARSHORE  0808   61 62  310/  4/  6 1017.8R


STATION/POSITION TIME  TEMP    WIND        PRES    WAVE   SWELL
                       AIR SEA DIR/SP/G            HT/PER HT/PER/DIR
                 (UTC) (F)     (DEG/KT/KT) (MB)    (FT/S) (FT/S/D)
5E ST. MARYS GA  0830      66                N/A     2/11   2/ 80/11
FRYING PAN BUOY  0850   62 74  280/ 14/ 17 1017.5S   3/10   2/ 70/10
BUOY 41025       0850   55 78  320/  6/ 10 1018.0S   5/11   5/ 60/11
CAPE LOOKOUT NC  0800   54      30/  5/  5 1017.8
BUOY 41002       0850   71 73  290/ 10/ 12 1017.3R   6/ 7   5/300/ 7
BUOY 41010       NOT AVBL
ST AUGUSTINE FL  0900   55 67  320/  7/ 10 1020.1F


$$




USA.gov is the U.S. government's official web portal to all federal, state and local government web resources and services.